This is the latest recevied weather packets stored in our database for station/object N5YHM-13. If no packets are shown the sender has not sent any weather packets the latest 10 day(s).
| Time | Temp. | Humidity | Pressure | Rain* | Wind** | Luminosity | Snow |
|---|---|---|---|---|---|---|---|
| 1778165553 | 18.89° C | 99% | 1016.7 hPa | 0 mm | - | 4 W/m² | - |
| 1778165250 | 19.44° C | 99% | 1016.7 hPa | 0 mm | - | 4 W/m² | - |
| 1778164948 | 19.44° C | 99% | 1016.7 hPa | 0 mm | - | 4 W/m² | - |
| 1778164644 | 19.44° C | 99% | 1016.7 hPa | 0 mm | - | 6 W/m² | - |
| 1778164341 | 19.44° C | 99% | 1016.7 hPa | 0 mm | - | 9 W/m² | - |
| 1778164037 | 19.44° C | 99% | 1016.6 hPa | 0 mm | - | 4 W/m² | - |
| 1778163734 | 20° C | 99% | 1016.9 hPa | 0 mm | - | 7 W/m² | - |
| 1778163430 | 20° C | 99% | 1016.7 hPa | 0 mm | - | 5 W/m² | - |
| 1778163127 | 20° C | 99% | 1016.7 hPa | 0 mm | - | 6 W/m² | - |
| 1778162823 | 20° C | 99% | 1016.3 hPa | 0 mm | - | 7 W/m² | - |
| 1778162521 | 20° C | 99% | 1016.3 hPa | 0 mm | - | 4 W/m² | - |
| 1778162218 | 20° C | 99% | 1016.4 hPa | 0 mm | - | 5 W/m² | - |
| 1778161915 | 20° C | 99% | 1016.4 hPa | 0 mm | - | 4 W/m² | - |
| 1778161611 | 20.56° C | 99% | 1016.5 hPa | 0 mm | - | 3 W/m² | - |
| 1778161308 | 20.56° C | 99% | 1016.4 hPa | 0 mm | - | 3 W/m² | - |
| 1778161004 | 20.56° C | 99% | 1016.4 hPa | 0 mm | - | 6 W/m² | - |
| 1778160701 | 20.56° C | 99% | 1016.2 hPa | 0 mm | - | 8 W/m² | - |
| 1778160398 | 20.56° C | 99% | 1016 hPa | 0 mm | - | 8 W/m² | - |
| 1778160094 | 20.56° C | 99% | 1016 hPa | 0 mm | - | 6 W/m² | - |
| 1778159791 | 20.56° C | 99% | 1016.2 hPa | 0 mm | - | 4 W/m² | - |
| 1778159489 | 20.56° C | 99% | 1016 hPa | 0 mm | - | 2 W/m² | - |
| 1778159185 | 20.56° C | 99% | 1015.9 hPa | 1.78 mm | - | 3 W/m² | - |
| 1778158883 | 20.56° C | 99% | 1016.1 hPa | 1.78 mm | - | 3 W/m² | - |
| 1778158582 | 21.11° C | 99% | 1015.9 hPa | 0 mm | - | 3 W/m² | - |
| 1778158279 | 21.11° C | 99% | 1015.9 hPa | 0 mm | - | 2 W/m² | - |
* Rain latest hour (hover to see other rain measurements)
** Current wind speed in m/s (hover to see current wind gust speed)